Simultaneous Nadir Overpasses (SNOs) Predictions

Prediction of SNOs between GOES-17 and AQUA Satellite Orbit:

Table of predicted SNOs for the next 14.0 days since TLE Epoch: 4/30/2022
Index Date Time (GOES-17) GOES-17 Lat,Lon AQUA Lat,Lon Distance(km) Time Diff (sec)
1 04/30/2022 10:52:58 -0.02,-137.20 0.24,-138.44 140.33 80
2 05/02/2022 10:37:52 -0.02,-137.20 -0.41,-135.41 203.61 80
3 05/02/2022 23:01:52 0.02,-137.20 -0.71,-140.58 385.01 80
4 05/04/2022 22:49:25 0.02,-137.19 -0.09,-137.55 41.83 80
5 05/06/2022 22:34:18 0.02,-137.18 0.57,-134.52 301.21 80
6 05/07/2022 10:58:10 -0.01,-137.17 0.49,-139.67 282.94 80
7 05/09/2022 10:43:02 -0.01,-137.15 -0.13,-136.63 59.60 80
8 05/11/2022 10:30:34 -0.01,-137.13 -0.78,-133.60 401.86 80
9 05/11/2022 22:54:33 0.01,-137.12 -0.36,-138.76 187.16 80
10 05/13/2022 22:42:04 0.01,-137.09 0.27,-135.72 154.66 80
